Time,TemperatureF,DewpointF,PressureIn,WindDirection,WindDirectionDegrees,WindSpeedMPH,WindSpeedGustMPH,Humidity,HourlyPrecipIn,Conditions,Clouds,dailyrainin,SoftwareType,DateUTC
2013-04-13 00:00:00,30.0,17.8,29.83,NNW,327,0.0,0.0,60,0.00,,---,0.00,VWS V14.01,2013-04-13 06:00:00,
2013-04-13 00:01:00,30.0,17.8,29.83,NNW,327,0.0,0.0,60,0.00,,---,0.00,VWS V14.01,2013-04-13 06:01:00,
2013-04-13 00:10:00,29.7,17.9,29.81,NNW,327,6.0,7.0,61,0.00,,---,0.00,VWS V14.01,2013-04-13 06:10:00,
2013-04-13 00:11:00,29.7,17.9,29.81,NNW,327,6.0,7.0,61,0.00,,---,0.00,VWS V14.01,2013-04-13 06:11:00,
2013-04-13 00:20:00,30.1,17.5,29.80,NNW,327,0.0,7.0,59,0.00,,---,0.00,VWS V14.01,2013-04-13 06:20:00,
2013-04-13 00:30:00,29.6,18.2,29.80,NNW,327,0.0,1.0,62,0.00,,---,0.00,VWS V14.01,2013-04-13 06:30:00,
2013-04-13 00:31:00,29.6,18.2,29.80,NNW,327,0.0,1.0,62,0.00,,---,0.00,VWS V14.01,2013-04-13 06:31:00,
2013-04-13 00:40:00,29.4,18.4,29.80,NNW,327,0.0,6.0,63,0.00,,---,0.00,VWS V14.01,2013-04-13 06:40:00,
2013-04-13 00:50:00,28.5,18.2,29.80,NNW,327,0.0,0.0,65,0.00,,---,0.00,VWS V14.01,2013-04-13 06:50:00,
2013-04-13 00:51:00,28.5,18.2,29.80,NNW,327,0.0,0.0,65,0.00,,---,0.00,VWS V14.01,2013-04-13 06:51:00,
2013-04-13 01:00:00,28.2,18.7,29.82,NNW,327,4.0,7.0,67,0.00,,---,0.00,VWS V14.01,2013-04-13 07:00:00,
2013-04-13 01:10:00,27.5,18.3,29.78,NNW,327,0.0,7.0,68,0.00,,---,0.00,VWS V14.01,2013-04-13 07:10:00,
2013-04-13 01:20:00,28.6,18.3,29.78,NNW,327,0.0,5.0,65,0.00,,---,0.00,VWS V14.01,2013-04-13 07:20:00,
2013-04-13 01:30:00,28.0,18.1,29.77,NNW,327,0.0,0.0,66,0.00,,---,0.00,VWS V14.01,2013-04-13 07:30:00,
2013-04-13 01:40:00,27.4,17.9,29.79,NNW,327,0.0,0.0,67,0.00,,---,0.00,VWS V14.01,2013-04-13 07:40:00,
2013-04-13 01:50:00,27.3,17.8,29.78,NNW,327,0.0,0.0,67,0.00,,---,0.00,VWS V14.01,2013-04-13 07:50:00,
2013-04-13 02:00:00,26.4,17.6,29.78,NNW,327,0.0,0.0,69,0.00,,---,0.00,VWS V14.01,2013-04-13 08:00:00,
2013-04-13 02:10:00,27.4,17.2,29.77,NNW,327,0.0,1.0,65,0.00,,---,0.00,VWS V14.01,2013-04-13 08:10:00,
2013-04-13 02:20:00,29.1,17.0,29.75,NNW,327,0.0,0.0,60,0.00,,---,0.00,VWS V14.01,2013-04-13 08:20:00,
2013-04-13 02:30:00,27.4,17.5,29.76,NNW,327,0.0,8.0,66,0.00,,---,0.00,VWS V14.01,2013-04-13 08:30:00,
2013-04-13 02:40:00,27.2,17.7,29.76,NNW,327,0.0,1.0,67,0.00,,---,0.00,VWS V14.01,2013-04-13 08:40:00,
2013-04-13 02:41:00,27.2,17.7,29.76,NNW,327,0.0,1.0,67,0.00,,---,0.00,VWS V14.01,2013-04-13 08:41:00,
2013-04-13 02:50:00,26.4,17.6,29.75,NNW,327,0.0,0.0,69,0.00,,---,0.00,VWS V14.01,2013-04-13 08:50:00,
2013-04-13 03:00:00,25.8,17.7,29.76,NNW,327,0.0,0.0,71,0.00,,---,0.00,VWS V14.01,2013-04-13 09:00:00,
2013-04-13 03:01:00,25.8,17.7,29.76,NNW,327,0.0,0.0,71,0.00,,---,0.00,VWS V14.01,2013-04-13 09:01:00,
2013-04-13 03:10:00,25.5,17.8,29.75,NNW,327,0.0,0.0,72,0.00,,---,0.00,VWS V14.01,2013-04-13 09:10:00,
2013-04-13 03:11:00,25.5,17.8,29.75,NNW,327,0.0,0.0,72,0.00,,---,0.00,VWS V14.01,2013-04-13 09:11:00,
2013-04-13 03:20:00,25.3,17.5,29.74,NNW,327,0.0,7.0,72,0.00,,---,0.00,VWS V14.01,2013-04-13 09:20:00,
2013-04-13 03:30:00,26.2,17.4,29.74,NNW,327,0.0,7.0,69,0.00,,---,0.00,VWS V14.01,2013-04-13 09:30:00,
2013-04-13 03:40:00,27.8,17.9,29.73,NNW,327,0.0,7.0,66,0.00,,---,0.00,VWS V14.01,2013-04-13 09:40:00,
2013-04-13 03:50:00,26.8,17.7,29.72,NNW,327,0.0,0.0,68,0.00,,---,0.00,VWS V14.01,2013-04-13 09:50:00,
2013-04-13 03:51:00,26.8,17.7,29.72,NNW,327,0.0,0.0,68,0.00,,---,0.00,VWS V14.01,2013-04-13 09:51:00,
2013-04-13 04:00:00,25.7,17.3,29.74,NNW,327,0.0,0.0,70,0.00,,---,0.00,VWS V14.01,2013-04-13 10:00:00,
2013-04-13 04:10:00,25.7,17.3,29.73,NNW,327,0.0,0.0,70,0.00,,---,0.00,VWS V14.01,2013-04-13 10:10:00,
2013-04-13 04:20:00,25.1,17.4,29.73,NNW,327,0.0,0.0,72,0.00,,---,0.00,VWS V14.01,2013-04-13 10:20:00,
2013-04-13 04:30:00,24.8,17.7,29.73,NNW,327,0.0,0.0,74,0.00,,---,0.00,VWS V14.01,2013-04-13 10:30:00,
2013-04-13 04:31:00,24.8,17.7,29.73,NNW,327,0.0,0.0,74,0.00,,---,0.00,VWS V14.01,2013-04-13 10:31:00,
2013-04-13 04:40:00,24.6,17.8,29.73,NNW,327,4.0,5.0,75,0.00,,---,0.00,VWS V14.01,2013-04-13 10:40:00,
2013-04-13 04:41:00,24.6,17.8,29.73,NNW,327,4.0,5.0,75,0.00,,---,0.00,VWS V14.01,2013-04-13 10:41:00,
2013-04-13 04:50:00,24.4,17.6,29.73,NNW,327,0.0,4.0,75,0.00,,---,0.00,VWS V14.01,2013-04-13 10:50:00,
2013-04-13 05:00:00,24.4,17.9,29.75,NNW,327,0.0,1.0,76,0.00,,---,0.00,VWS V14.01,2013-04-13 11:00:00,
2013-04-13 05:10:00,25.0,17.9,29.75,NNW,327,0.0,7.0,74,0.00,,---,0.00,VWS V14.01,2013-04-13 11:10:00,
2013-04-13 05:20:00,24.9,17.8,29.74,NNW,327,0.0,0.0,74,0.00,,---,0.00,VWS V14.01,2013-04-13 11:20:00,
2013-04-13 05:30:00,24.5,18.0,29.73,NNW,327,0.0,2.0,76,0.00,,---,0.00,VWS V14.01,2013-04-13 11:30:00,
2013-04-13 05:31:00,24.5,18.0,29.73,NNW,327,0.0,2.0,76,0.00,,---,0.00,VWS V14.01,2013-04-13 11:31:00,
2013-04-13 05:40:00,24.0,17.5,29.74,NNW,327,0.0,0.0,76,0.00,,---,0.00,VWS V14.01,2013-04-13 11:40:00,
2013-04-13 05:50:00,23.7,17.6,29.75,NNW,327,0.0,0.0,77,0.00,,---,0.00,VWS V14.01,2013-04-13 11:50:00,
2013-04-13 05:51:00,23.7,17.6,29.75,NNW,327,0.0,0.0,77,0.00,,---,0.00,VWS V14.01,2013-04-13 11:51:00,
2013-04-13 06:00:00,23.4,17.6,29.74,NNW,327,0.0,0.0,78,0.00,,---,0.00,VWS V14.01,2013-04-13 12:00:00,
2013-04-13 06:10:00,22.6,17.1,29.76,NNW,327,0.0,0.0,79,0.00,,---,0.00,VWS V14.01,2013-04-13 12:10:00,
2013-04-13 06:11:00,22.6,17.1,29.76,NNW,327,0.0,0.0,79,0.00,,---,0.00,VWS V14.01,2013-04-13 12:11:00,
2013-04-13 06:20:00,22.8,17.6,29.75,NNW,327,0.0,0.0,80,0.00,,---,0.00,VWS V14.01,2013-04-13 12:20:00,
2013-04-13 06:30:00,23.0,17.5,29.75,NNW,327,0.0,0.0,79,0.00,,---,0.00,VWS V14.01,2013-04-13 12:30:00,
2013-04-13 06:40:00,23.3,18.1,29.75,NNW,327,0.0,0.0,80,0.00,,---,0.00,VWS V14.01,2013-04-13 12:40:00,
2013-04-13 06:50:00,23.4,17.6,29.75,NNW,327,0.0,0.0,78,0.00,,---,0.00,VWS V14.01,2013-04-13 12:50:00,
2013-04-13 06:51:00,23.4,17.6,29.75,NNW,327,0.0,0.0,78,0.00,,---,0.00,VWS V14.01,2013-04-13 12:51:00,
2013-04-13 07:00:00,23.9,18.0,29.74,NNW,327,0.0,0.0,78,0.00,,---,0.00,VWS V14.01,2013-04-13 13:00:00,
2013-04-13 07:01:00,23.9,18.0,29.74,NNW,327,0.0,0.0,78,0.00,,---,0.00,VWS V14.01,2013-04-13 13:01:00,
2013-04-13 07:10:00,23.7,18.4,29.80,NNW,327,0.0,5.0,80,0.00,,---,0.00,VWS V14.01,2013-04-13 13:10:00,
2013-04-13 07:20:00,25.6,19.7,29.77,NW,310,0.0,10.0,78,0.00,,---,0.00,VWS V14.01,2013-04-13 13:20:00,
2013-04-13 07:21:00,25.6,19.7,29.77,NW,310,0.0,10.0,78,0.00,,---,0.00,VWS V14.01,2013-04-13 13:21:00,
2013-04-13 07:30:00,27.5,20.6,29.75,NW,312,0.0,10.0,75,0.00,,---,0.00,VWS V14.01,2013-04-13 13:30:00,
2013-04-13 07:31:00,27.5,20.6,29.75,NW,312,0.0,10.0,75,0.00,,---,0.00,VWS V14.01,2013-04-13 13:31:00,
2013-04-13 07:40:00,28.2,20.7,29.74,North,360,5.0,10.0,73,0.00,,---,0.00,VWS V14.01,2013-04-13 13:40:00,
2013-04-13 07:50:00,29.6,20.4,29.73,ESE,119,0.0,9.0,68,0.00,,---,0.00,VWS V14.01,2013-04-13 13:50:00,
2013-04-13 07:51:00,29.6,20.4,29.73,ESE,119,0.0,9.0,68,0.00,,---,0.00,VWS V14.01,2013-04-13 13:51:00,
2013-04-13 08:00:00,29.4,19.5,29.72,ESE,119,5.0,5.0,66,0.00,,---,0.00,VWS V14.01,2013-04-13 14:00:00,
2013-04-13 08:01:00,29.4,19.5,29.72,ESE,119,5.0,5.0,66,0.00,,---,0.00,VWS V14.01,2013-04-13 14:01:00,
2013-04-13 08:10:00,28.9,19.7,29.77,SSE,156,1.0,8.0,68,0.00,,---,0.00,VWS V14.01,2013-04-13 14:10:00,
2013-04-13 08:11:00,28.9,19.7,29.77,SSE,156,1.0,8.0,68,0.00,,---,0.00,VWS V14.01,2013-04-13 14:11:00,
2013-04-13 08:20:00,32.2,21.0,29.73,SSE,156,2.0,5.0,63,0.00,,---,0.00,VWS V14.01,2013-04-13 14:20:00,
2013-04-13 08:21:00,32.2,21.0,29.73,SSE,156,2.0,5.0,63,0.00,,---,0.00,VWS V14.01,2013-04-13 14:21:00,
2013-04-13 08:30:00,34.3,22.3,29.72,SSE,157,0.0,8.0,61,0.00,,---,0.00,VWS V14.01,2013-04-13 14:30:00,
2013-04-13 08:40:00,37.3,21.3,29.69,East,101,3.0,9.0,52,0.00,,---,0.00,VWS V14.01,2013-04-13 14:40:00,
2013-04-13 08:41:00,37.3,21.3,29.69,East,101,3.0,9.0,52,0.00,,---,0.00,VWS V14.01,2013-04-13 14:41:00,
2013-04-13 08:50:00,37.2,21.2,29.68,East,101,3.0,5.0,52,0.00,,---,0.00,VWS V14.01,2013-04-13 14:50:00,
2013-04-13 09:00:00,36.9,22.3,29.68,East,99,4.0,6.0,55,0.00,,---,0.00,VWS V14.01,2013-04-13 15:00:00,
2013-04-13 09:01:00,36.9,22.3,29.68,East,99,4.0,6.0,55,0.00,,---,0.00,VWS V14.01,2013-04-13 15:01:00,
2013-04-13 09:10:00,37.3,23.1,29.67,East,88,4.0,7.0,56,0.00,,---,0.00,VWS V14.01,2013-04-13 15:10:00,
2013-04-13 09:11:00,37.3,23.1,29.67,East,88,4.0,7.0,56,0.00,,---,0.00,VWS V14.01,2013-04-13 15:11:00,
2013-04-13 09:20:00,39.0,22.0,29.64,ESE,118,6.0,9.0,50,0.00,,---,0.00,VWS V14.01,2013-04-13 15:20:00,
2013-04-13 09:30:00,40.4,20.8,29.63,SE,128,0.0,10.0,45,0.00,,---,0.00,VWS V14.01,2013-04-13 15:30:00,
2013-04-13 09:40:00,42.3,20.9,29.60,SE,128,0.0,5.0,42,0.00,,---,0.00,VWS V14.01,2013-04-13 15:40:00,
2013-04-13 09:41:00,42.3,20.9,29.60,SE,128,0.0,5.0,42,0.00,,---,0.00,VWS V14.01,2013-04-13 15:41:00,
2013-04-13 09:50:00,44.0,18.1,29.59,SE,128,0.0,0.0,35,0.00,,---,0.00,VWS V14.01,2013-04-13 15:50:00,
2013-04-13 09:51:00,44.0,18.1,29.59,SE,128,0.0,0.0,35,0.00,,---,0.00,VWS V14.01,2013-04-13 15:51:00,
2013-04-13 10:00:00,45.7,16.8,29.56,SSE,153,2.0,9.0,31,0.00,,---,0.00,VWS V14.01,2013-04-13 16:00:00,
2013-04-13 10:01:00,45.7,16.8,29.56,SSE,153,2.0,9.0,31,0.00,,---,0.00,VWS V14.01,2013-04-13 16:01:00,
2013-04-13 10:10:00,47.0,17.2,29.57,South,172,4.0,11.0,30,0.00,,---,0.00,VWS V14.01,2013-04-13 16:10:00,
2013-04-13 10:20:00,47.3,15.9,29.58,NNE,17,4.0,17.0,28,0.00,,---,0.00,VWS V14.01,2013-04-13 16:20:00,
2013-04-13 10:21:00,47.3,15.9,29.58,NNE,17,4.0,17.0,28,0.00,,---,0.00,VWS V14.01,2013-04-13 16:21:00,
2013-04-13 10:30:00,47.8,17.9,29.57,North,360,15.0,19.0,30,0.00,,---,0.00,VWS V14.01,2013-04-13 16:30:00,
2013-04-13 10:40:00,47.0,14.8,29.56,NE,36,11.0,24.0,27,0.00,,---,0.00,VWS V14.01,2013-04-13 16:40:00,
2013-04-13 10:41:00,47.0,14.8,29.56,NE,36,11.0,24.0,27,0.00,,---,0.00,VWS V14.01,2013-04-13 16:41:00,
2013-04-13 10:50:00,48.4,16.0,29.56,North,355,0.0,14.0,27,0.00,,---,0.00,VWS V14.01,2013-04-13 16:50:00,
2013-04-13 11:00:00,48.9,15.5,29.55,WNW,287,10.0,22.0,26,0.00,,---,0.00,VWS V14.01,2013-04-13 17:00:00,
2013-04-13 11:01:00,48.9,15.5,29.55,WNW,287,10.0,22.0,26,0.00,,---,0.00,VWS V14.01,2013-04-13 17:01:00,
2013-04-13 11:10:00,48.6,17.0,29.53,SW,231,22.0,35.0,28,0.00,,---,0.00,VWS V14.01,2013-04-13 17:10:00,
2013-04-13 11:20:00,48.8,16.3,29.54,WNW,283,17.0,27.0,27,0.00,,---,0.00,VWS V14.01,2013-04-13 17:20:00,
2013-04-13 11:21:00,48.8,16.3,29.54,WNW,283,17.0,27.0,27,0.00,,---,0.00,VWS V14.01,2013-04-13 17:21:00,
2013-04-13 11:30:00,49.2,18.3,29.54,WNW,303,14.0,24.0,29,0.00,,---,0.00,VWS V14.01,2013-04-13 17:30:00,
2013-04-13 11:31:00,49.2,18.3,29.54,WNW,303,14.0,24.0,29,0.00,,---,0.00,VWS V14.01,2013-04-13 17:31:00,
2013-04-13 11:40:00,49.4,16.0,29.52,NNW,327,10.0,29.0,26,0.00,,---,0.00,VWS V14.01,2013-04-13 17:40:00,
2013-04-13 11:50:00,50.1,18.3,29.51,WNW,292,21.0,24.0,28,0.00,,---,0.00,VWS V14.01,2013-04-13 17:50:00,
2013-04-13 12:00:00,50.0,15.6,29.50,West,264,3.0,29.0,25,0.00,,---,0.00,VWS V14.01,2013-04-13 18:00:00,
2013-04-13 12:10:00,50.7,19.6,29.52,West,263,1.0,29.0,29,0.00,,---,0.00,VWS V14.01,2013-04-13 18:10:00,
2013-04-13 12:11:00,50.7,19.6,29.52,West,263,1.0,29.0,29,0.00,,---,0.00,VWS V14.01,2013-04-13 18:11:00,
2013-04-13 12:20:00,50.8,17.2,29.50,SW,217,0.0,23.0,26,0.00,,---,0.00,VWS V14.01,2013-04-13 18:20:00,
2013-04-13 12:21:00,50.8,17.2,29.50,SW,217,0.0,23.0,26,0.00,,---,0.00,VWS V14.01,2013-04-13 18:21:00,
2013-04-13 12:30:00,50.5,16.9,29.50,WNW,290,2.0,23.0,26,0.00,,---,0.00,VWS V14.01,2013-04-13 18:30:00,
2013-04-13 12:40:00,50.7,18.8,29.50,NW,316,13.0,25.0,28,0.00,,---,0.00,VWS V14.01,2013-04-13 18:40:00,
2013-04-13 12:41:00,50.7,18.8,29.50,NW,316,13.0,25.0,28,0.00,,---,0.00,VWS V14.01,2013-04-13 18:41:00,
2013-04-13 12:50:00,51.6,17.0,29.48,WNW,300,0.0,31.0,25,0.00,,---,0.00,VWS V14.01,2013-04-13 18:50:00,
2013-04-13 12:51:00,51.6,17.0,29.48,WNW,300,0.0,31.0,25,0.00,,---,0.00,VWS V14.01,2013-04-13 18:51:00,
2013-04-13 13:00:00,51.3,17.6,29.48,WNW,282,15.0,34.0,26,0.00,,---,0.00,VWS V14.01,2013-04-13 19:00:00,
2013-04-13 13:10:00,51.2,17.5,29.48,West,264,9.0,32.0,26,0.00,,---,0.00,VWS V14.01,2013-04-13 19:10:00,
2013-04-13 13:11:00,51.2,17.5,29.48,West,264,9.0,32.0,26,0.00,,---,0.00,VWS V14.01,2013-04-13 19:11:00,
2013-04-13 13:20:00,51.8,18.0,29.47,NW,319,9.0,29.0,26,0.00,,---,0.00,VWS V14.01,2013-04-13 19:20:00,
2013-04-13 13:21:00,51.8,18.0,29.47,NW,319,9.0,29.0,26,0.00,,---,0.00,VWS V14.01,2013-04-13 19:21:00,
2013-04-13 13:30:00,51.9,17.2,29.47,SW,225,15.0,31.0,25,0.00,,---,0.00,VWS V14.01,2013-04-13 19:30:00,
2013-04-13 13:31:00,51.9,17.2,29.47,SW,225,15.0,31.0,25,0.00,,---,0.00,VWS V14.01,2013-04-13 19:31:00,
2013-04-13 13:40:00,52.3,17.5,29.47,SW,218,3.0,38.0,25,0.00,,---,0.00,VWS V14.01,2013-04-13 19:40:00,
2013-04-13 13:41:00,52.3,17.5,29.47,SW,218,3.0,38.0,25,0.00,,---,0.00,VWS V14.01,2013-04-13 19:41:00,
2013-04-13 13:50:00,52.6,16.9,29.45,NNW,336,0.0,33.0,24,0.00,,---,0.00,VWS V14.01,2013-04-13 19:50:00,
2013-04-13 13:51:00,52.6,16.9,29.45,NNW,336,0.0,33.0,24,0.00,,---,0.00,VWS V14.01,2013-04-13 19:51:00,
2013-04-13 14:00:00,53.9,18.9,29.44,North,360,8.0,12.0,25,0.00,,---,0.00,VWS V14.01,2013-04-13 20:00:00,
2013-04-13 14:01:00,53.9,18.9,29.44,North,360,8.0,12.0,25,0.00,,---,0.00,VWS V14.01,2013-04-13 20:01:00,
2013-04-13 14:10:00,52.7,18.8,29.45,West,270,20.0,33.0,26,0.00,,---,0.00,VWS V14.01,2013-04-13 20:10:00,
2013-04-13 14:11:00,52.7,18.8,29.45,West,270,20.0,33.0,26,0.00,,---,0.00,VWS V14.01,2013-04-13 20:11:00,
2013-04-13 14:20:00,52.2,19.2,29.45,West,259,21.0,33.0,27,0.00,,---,0.00,VWS V14.01,2013-04-13 20:20:00,
2013-04-13 14:21:00,52.2,19.2,29.45,West,259,21.0,33.0,27,0.00,,---,0.00,VWS V14.01,2013-04-13 20:21:00,
2013-04-13 14:30:00,52.4,18.5,29.44,WSW,246,21.0,41.0,26,0.00,,---,0.00,VWS V14.01,2013-04-13 20:30:00,
2013-04-13 14:31:00,52.4,18.5,29.44,WSW,246,21.0,41.0,26,0.00,,---,0.00,VWS V14.01,2013-04-13 20:31:00,
2013-04-13 14:40:00,53.9,20.7,29.43,WSW,252,14.0,33.0,27,0.00,,---,0.00,VWS V14.01,2013-04-13 20:40:00,
2013-04-13 14:41:00,53.9,20.7,29.43,WSW,252,14.0,33.0,27,0.00,,---,0.00,VWS V14.01,2013-04-13 20:41:00,
2013-04-13 14:50:00,54.4,19.3,29.41,WSW,252,19.0,38.0,25,0.00,,---,0.00,VWS V14.01,2013-04-13 20:50:00,
2013-04-13 14:51:00,54.4,19.3,29.41,WSW,252,19.0,38.0,25,0.00,,---,0.00,VWS V14.01,2013-04-13 20:51:00,
2013-04-13 15:00:00,53.8,18.8,29.40,SW,232,15.0,33.0,25,0.00,,---,0.00,VWS V14.01,2013-04-13 21:00:00,
2013-04-13 15:01:00,53.8,18.8,29.40,SW,232,15.0,33.0,25,0.00,,---,0.00,VWS V14.01,2013-04-13 21:01:00,
2013-04-13 15:10:00,54.9,18.8,29.39,WSW,245,19.0,32.0,24,0.00,,---,0.00,VWS V14.01,2013-04-13 21:10:00,
2013-04-13 15:11:00,54.9,18.8,29.39,WSW,245,19.0,32.0,24,0.00,,---,0.00,VWS V14.01,2013-04-13 21:11:00,
2013-04-13 15:20:00,54.5,18.5,29.38,SW,219,14.0,30.0,24,0.00,,---,0.00,VWS V14.01,2013-04-13 21:20:00,
2013-04-13 15:21:00,54.5,18.5,29.38,SW,219,14.0,30.0,24,0.00,,---,0.00,VWS V14.01,2013-04-13 21:21:00,
2013-04-13 15:30:00,54.1,18.1,29.37,SW,225,12.0,34.0,24,0.00,,---,0.00,VWS V14.01,2013-04-13 21:30:00,
2013-04-13 15:31:00,54.1,18.1,29.37,SW,225,12.0,34.0,24,0.00,,---,0.00,VWS V14.01,2013-04-13 21:31:00,
2013-04-13 15:40:00,53.2,17.4,29.38,West,276,12.0,36.0,24,0.00,,---,0.00,VWS V14.01,2013-04-13 21:40:00,
2013-04-13 15:41:00,53.2,17.4,29.38,West,276,12.0,36.0,24,0.00,,---,0.00,VWS V14.01,2013-04-13 21:41:00,
2013-04-13 15:50:00,53.6,19.6,29.38,West,281,21.0,38.0,26,0.00,,---,0.00,VWS V14.01,2013-04-13 21:50:00,
2013-04-13 15:51:00,53.6,19.6,29.38,West,281,21.0,38.0,26,0.00,,---,0.00,VWS V14.01,2013-04-13 21:51:00,
2013-04-13 16:00:00,52.8,18.9,29.35,SW,236,20.0,41.0,26,0.00,,---,0.00,VWS V14.01,2013-04-13 22:00:00,
2013-04-13 16:01:00,52.8,18.9,29.35,SW,236,20.0,41.0,26,0.00,,---,0.00,VWS V14.01,2013-04-13 22:01:00,
2013-04-13 16:10:00,53.3,19.3,29.36,SW,222,15.0,34.0,26,0.00,,---,0.00,VWS V14.01,2013-04-13 22:10:00,
2013-04-13 16:11:00,53.3,19.3,29.36,SW,222,15.0,34.0,26,0.00,,---,0.00,VWS V14.01,2013-04-13 22:11:00,
2013-04-13 16:20:00,53.3,19.3,29.36,West,263,30.0,33.0,26,0.00,,---,0.00,VWS V14.01,2013-04-13 22:20:00,
2013-04-13 16:21:00,53.3,19.3,29.36,West,263,30.0,33.0,26,0.00,,---,0.00,VWS V14.01,2013-04-13 22:21:00,
2013-04-13 16:30:00,52.9,19.9,29.36,West,262,18.0,33.0,27,0.00,,---,0.00,VWS V14.01,2013-04-13 22:30:00,
2013-04-13 16:31:00,52.9,19.9,29.36,West,262,18.0,33.0,27,0.00,,---,0.00,VWS V14.01,2013-04-13 22:31:00,
2013-04-13 16:40:00,52.8,19.8,29.36,WSW,241,28.0,33.0,27,0.00,,---,0.00,VWS V14.01,2013-04-13 22:40:00,
2013-04-13 16:41:00,52.8,19.8,29.36,WSW,241,28.0,33.0,27,0.00,,---,0.00,VWS V14.01,2013-04-13 22:41:00,
2013-04-13 16:50:00,52.6,19.6,29.36,West,261,30.0,33.0,27,0.00,,---,0.00,VWS V14.01,2013-04-13 22:50:00,
2013-04-13 16:51:00,52.6,19.6,29.36,West,261,30.0,33.0,27,0.00,,---,0.00,VWS V14.01,2013-04-13 22:51:00,
2013-04-13 17:00:00,51.7,18.8,29.35,WSW,252,20.0,39.0,27,0.00,,---,0.00,VWS V14.01,2013-04-13 23:00:00,
2013-04-13 17:01:00,51.7,18.8,29.35,WSW,252,20.0,39.0,27,0.00,,---,0.00,VWS V14.01,2013-04-13 23:01:00,
2013-04-13 17:10:00,51.3,20.1,29.37,SW,233,23.0,36.0,29,0.00,,---,0.00,VWS V14.01,2013-04-13 23:10:00,
2013-04-13 17:11:00,51.3,20.1,29.37,SW,233,23.0,36.0,29,0.00,,---,0.00,VWS V14.01,2013-04-13 23:11:00,
2013-04-13 17:20:00,50.5,19.5,29.36,SW,222,24.0,40.0,29,0.00,,---,0.00,VWS V14.01,2013-04-13 23:20:00,
2013-04-13 17:21:00,50.5,19.5,29.36,SW,222,24.0,40.0,29,0.00,,---,0.00,VWS V14.01,2013-04-13 23:21:00,
2013-04-13 17:30:00,49.4,20.0,29.38,WSW,252,40.0,44.0,31,0.00,,---,0.00,VWS V14.01,2013-04-13 23:30:00,
2013-04-13 17:31:00,49.4,20.0,29.38,WSW,252,40.0,44.0,31,0.00,,---,0.00,VWS V14.01,2013-04-13 23:31:00,
2013-04-13 17:40:00,49.5,20.1,29.37,WSW,256,40.0,45.0,31,0.00,,---,0.00,VWS V14.01,2013-04-13 23:40:00,
2013-04-13 17:41:00,49.5,20.1,29.37,WSW,256,40.0,45.0,31,0.00,,---,0.00,VWS V14.01,2013-04-13 23:41:00,
2013-04-13 17:50:00,48.9,20.4,29.36,WSW,245,34.0,45.0,32,0.00,,---,0.00,VWS V14.01,2013-04-13 23:50:00,
2013-04-13 17:51:00,48.9,20.4,29.36,WSW,245,34.0,45.0,32,0.00,,---,0.00,VWS V14.01,2013-04-13 23:51:00,
2013-04-13 18:00:00,48.0,21.0,29.38,WSW,244,25.0,44.0,34,0.00,,---,0.00,VWS V14.01,2013-04-14 00:00:00,
2013-04-13 18:01:00,48.0,21.0,29.38,WSW,244,25.0,44.0,34,0.00,,---,0.00,VWS V14.01,2013-04-14 00:01:00,
2013-04-13 18:10:00,47.5,21.2,29.37,West,268,29.0,40.0,35,0.00,,---,0.00,VWS V14.01,2013-04-14 00:10:00,
2013-04-13 18:11:00,47.5,21.2,29.37,West,268,29.0,40.0,35,0.00,,---,0.00,VWS V14.01,2013-04-14 00:11:00,
2013-04-13 18:20:00,46.9,21.4,29.39,WSW,241,26.0,38.0,36,0.00,,---,0.00,VWS V14.01,2013-04-14 00:20:00,
2013-04-13 18:21:00,46.9,21.4,29.39,WSW,241,26.0,38.0,36,0.00,,---,0.00,VWS V14.01,2013-04-14 00:21:00,
2013-04-13 18:30:00,46.5,22.3,29.40,WSW,242,19.0,36.0,38,0.00,,---,0.00,VWS V14.01,2013-04-14 00:30:00,
2013-04-13 18:31:00,46.5,22.3,29.40,WSW,242,19.0,36.0,38,0.00,,---,0.00,VWS V14.01,2013-04-14 00:31:00,
2013-04-13 18:40:00,46.2,22.6,29.41,SW,225,16.0,36.0,39,0.00,,---,0.00,VWS V14.01,2013-04-14 00:40:00,
2013-04-13 18:41:00,46.2,22.6,29.41,SW,225,16.0,36.0,39,0.00,,---,0.00,VWS V14.01,2013-04-14 00:41:00,
2013-04-13 18:50:00,46.0,22.5,29.41,WSW,245,16.0,29.0,39,0.00,,---,0.00,VWS V14.01,2013-04-14 00:50:00,
2013-04-13 18:51:00,46.0,22.5,29.41,WSW,245,16.0,29.0,39,0.00,,---,0.00,VWS V14.01,2013-04-14 00:51:00,
2013-04-13 19:00:00,46.2,22.6,29.40,SW,217,23.0,36.0,39,0.00,,---,0.00,VWS V14.01,2013-04-14 01:00:00,
2013-04-13 19:01:00,46.2,22.6,29.40,SW,217,23.0,36.0,39,0.00,,---,0.00,VWS V14.01,2013-04-14 01:01:00,
2013-04-13 19:10:00,46.4,22.2,29.35,WSW,247,18.0,33.0,38,0.00,,---,0.00,VWS V14.01,2013-04-14 01:10:00,
2013-04-13 19:11:00,46.4,22.2,29.35,WSW,247,18.0,33.0,38,0.00,,---,0.00,VWS V14.01,2013-04-14 01:11:00,
2013-04-13 19:20:00,46.5,21.6,29.34,SSW,211,11.0,35.0,37,0.00,,---,0.00,VWS V14.01,2013-04-14 01:20:00,
2013-04-13 19:21:00,46.5,21.6,29.34,SSW,211,11.0,35.0,37,0.00,,---,0.00,VWS V14.01,2013-04-14 01:21:00,
2013-04-13 19:30:00,46.7,21.2,29.33,WSW,238,16.0,30.0,36,0.00,,---,0.00,VWS V14.01,2013-04-14 01:30:00,
2013-04-13 19:31:00,46.7,21.2,29.33,WSW,238,16.0,30.0,36,0.00,,---,0.00,VWS V14.01,2013-04-14 01:31:00,
2013-04-13 19:40:00,46.2,21.4,29.34,SW,215,22.0,31.0,37,0.00,,---,0.00,VWS V14.01,2013-04-14 01:40:00,
2013-04-13 19:41:00,46.2,21.4,29.34,SW,215,22.0,31.0,37,0.00,,---,0.00,VWS V14.01,2013-04-14 01:41:00,
2013-04-13 19:50:00,46.4,21.6,29.34,SSW,207,14.0,31.0,37,0.00,,---,0.00,VWS V14.01,2013-04-14 01:50:00,
2013-04-13 19:51:00,46.4,21.6,29.34,SSW,207,14.0,31.0,37,0.00,,---,0.00,VWS V14.01,2013-04-14 01:51:00,
2013-04-13 20:00:00,46.7,21.8,29.33,SSW,206,26.0,37.0,37,0.00,,---,0.00,VWS V14.01,2013-04-14 02:00:00,
2013-04-13 20:01:00,46.7,21.8,29.33,SSW,206,26.0,37.0,37,0.00,,---,0.00,VWS V14.01,2013-04-14 02:01:00,
2013-04-13 20:10:00,47.0,21.5,29.26,SSW,199,16.0,31.0,36,0.00,,---,0.00,VWS V14.01,2013-04-14 02:10:00,
2013-04-13 20:11:00,47.0,21.5,29.26,SSW,199,16.0,31.0,36,0.00,,---,0.00,VWS V14.01,2013-04-14 02:11:00,
2013-04-13 20:20:00,46.6,22.4,29.27,SW,219,13.0,24.0,38,0.00,,---,0.00,VWS V14.01,2013-04-14 02:20:00,
2013-04-13 20:21:00,46.6,22.4,29.27,SW,219,13.0,24.0,38,0.00,,---,0.00,VWS V14.01,2013-04-14 02:21:00,
2013-04-13 20:30:00,45.7,23.9,29.28,WSW,253,30.0,38.0,42,0.00,,---,0.00,VWS V14.01,2013-04-14 02:30:00,
2013-04-13 20:31:00,45.7,23.9,29.28,WSW,253,30.0,38.0,42,0.00,,---,0.00,VWS V14.01,2013-04-14 02:31:00,
2013-04-13 20:40:00,44.8,25.3,29.28,SW,215,22.0,31.0,46,0.00,,---,0.00,VWS V14.01,2013-04-14 02:40:00,
2013-04-13 20:41:00,44.8,25.3,29.28,SW,215,22.0,31.0,46,0.00,,---,0.00,VWS V14.01,2013-04-14 02:41:00,
2013-04-13 20:50:00,43.8,25.9,29.30,SW,228,27.0,33.0,49,0.00,,---,0.00,VWS V14.01,2013-04-14 02:50:00,
2013-04-13 20:51:00,43.8,25.9,29.30,SW,228,27.0,33.0,49,0.00,,---,0.00,VWS V14.01,2013-04-14 02:51:00,
2013-04-13 21:00:00,43.3,26.4,29.32,SW,227,13.0,27.0,51,0.00,,---,0.00,VWS V14.01,2013-04-14 03:00:00,
2013-04-13 21:01:00,43.3,26.4,29.32,SW,227,13.0,27.0,51,0.00,,---,0.00,VWS V14.01,2013-04-14 03:01:00,
2013-04-13 21:10:00,42.9,27.4,29.26,SW,236,18.0,23.0,54,0.00,,---,0.00,VWS V14.01,2013-04-14 03:10:00,
2013-04-13 21:11:00,42.9,27.4,29.26,SW,236,18.0,23.0,54,0.00,,---,0.00,VWS V14.01,2013-04-14 03:11:00,
2013-04-13 21:20:00,42.5,27.9,29.26,SW,230,15.0,25.0,56,0.00,,---,0.00,VWS V14.01,2013-04-14 03:20:00,
2013-04-13 21:21:00,42.5,27.9,29.26,SW,230,15.0,25.0,56,0.00,,---,0.00,VWS V14.01,2013-04-14 03:21:00,
2013-04-13 21:30:00,40.9,29.3,29.28,South,187,13.0,22.0,63,0.00,,---,0.00,VWS V14.01,2013-04-14 03:30:00,
2013-04-13 21:31:00,40.9,29.3,29.28,South,187,13.0,22.0,63,0.00,,---,0.00,VWS V14.01,2013-04-14 03:31:00,
2013-04-13 21:40:00,39.7,30.4,29.28,South,190,15.0,26.0,69,0.00,,---,0.00,VWS V14.01,2013-04-14 03:40:00,
2013-04-13 21:41:00,39.7,30.4,29.28,South,190,15.0,26.0,69,0.00,,---,0.00,VWS V14.01,2013-04-14 03:41:00,
2013-04-13 21:50:00,38.6,31.0,29.30,South,183,10.0,19.0,74,0.00,,---,0.00,VWS V14.01,2013-04-14 03:50:00,
2013-04-13 21:51:00,38.6,31.0,29.30,South,183,10.0,19.0,74,0.00,,---,0.00,VWS V14.01,2013-04-14 03:51:00,
2013-04-13 22:00:00,37.6,31.7,29.31,South,186,5.0,13.0,79,0.01,,---,0.01,VWS V14.01,2013-04-14 04:00:00,
2013-04-13 22:01:00,37.6,31.7,29.31,South,186,5.0,13.0,79,0.01,,---,0.01,VWS V14.01,2013-04-14 04:01:00,
2013-04-13 22:12:00,36.9,31.9,29.30,South,173,2.0,2.0,82,0.02,,---,0.02,VWS V14.01,2013-04-14 04:12:00,
2013-04-13 22:21:00,36.2,31.8,29.30,South,179,8.0,15.0,84,0.03,,---,0.03,VWS V14.01,2013-04-14 04:21:00,
2013-04-13 22:31:00,35.6,31.5,29.29,South,171,6.0,12.0,85,0.05,,---,0.05,VWS V14.01,2013-04-14 04:31:00,
2013-04-13 22:41:00,34.8,31.3,29.28,SSE,163,0.0,12.0,87,0.07,,---,0.07,VWS V14.01,2013-04-14 04:41:00,
2013-04-13 22:51:00,34.4,31.5,29.28,SSE,161,4.0,11.0,89,0.08,,---,0.08,VWS V14.01,2013-04-14 04:51:00,
2013-04-13 23:01:00,34.0,31.4,29.28,SSE,164,7.0,11.0,90,0.08,,---,0.08,VWS V14.01,2013-04-14 05:01:00,
2013-04-13 23:11:00,34.0,31.6,29.25,South,179,6.0,18.0,91,0.08,,---,0.09,VWS V14.01,2013-04-14 05:11:00,
2013-04-13 23:21:00,34.4,32.0,29.25,SSE,159,7.0,13.0,91,0.07,,---,0.09,VWS V14.01,2013-04-14 05:21:00,
2013-04-13 23:31:00,34.4,32.3,29.25,SSE,157,0.0,10.0,92,0.06,,---,0.09,VWS V14.01,2013-04-14 05:31:00,
2013-04-13 23:41:00,34.7,32.6,29.24,SSE,156,0.0,0.0,92,0.05,,---,0.10,VWS V14.01,2013-04-14 05:41:00,
2013-04-13 23:51:00,34.9,32.8,29.23,SSE,156,0.0,0.0,92,0.03,,---,0.10,VWS V14.01,2013-04-14 05:51:00,